Weather History for Alamogordo, NM

Change the Weather History Date:

Friday, February 15, 2013

  Actual Average Record
Temperature  
Mean Temperature 40 °F -  
Max Temperature 55 °F 61 °F 77 °F (2014)
Min Temperature 26 °F 34 °F 20 °F (1951)
Degree Days  
Heating Degree Days 24    
Moisture  
Dew Point 13 °F    
Average Humidity 35    
Maximum Humidity 60    
Minimum Humidity 20    
Precipitation  
Precipitation 0.00 in - - ()
Sea Level Pressure  
Sea Level Pressure 30.28 in    
Wind  
Wind Speed 8 mph (SSW)    
Max Wind Speed 21 mph    
Max Gust Speed 24 mph    
Visibility 10 miles    
Events      
Averages and records for this station are not official NWS values.
T = Trace of Precipitation, MM = Missing Value Source: NWS Daily Summary

Daily Weather History Graph

Daily Weather History Graph

Search for Another Location

Airport:

Trip Planner

Search our weather history database for the weather conditions in past years. The results will help you decide how hot, cold, wet, or windy it might be!

Date:

Astronomy

Feb. 15, 2013 Rise Set
Actual Time 6:46 AM MST 5:49 PM MST
Civil Twilight 6:21 AM MST 6:14 PM MST
Nautical Twilight 5:52 AM MST 6:43 PM MST
Astronomical Twilight 5:24 AM MST 7:12 PM MST
Moon 9:45 AM MST (2/15) 11:30 PM MST (2/15)
Length of Visible Light 11h 53m
Length of Day
11h 02m
Waxing Crescent, 31% of the Moon is Illuminated
Feb 15
Waxing Crescent
Feb 17
First Quarter
Feb 25
Full
Mar 4
Last Quarter
Mar 11
New

Hourly Weather History & Observations

Time (MST) Temp. Windchill Dew Point Humidity Pressure Visibility Wind Dir Wind Speed Gust Speed Precip Events Conditions
12:15 AM 32.0 °F 25.6 °F 6.8 °F 35% 30.18 in 10.0 mi NNW 6.9 mph - N/A   Clear
12:35 AM 33.8 °F 27.0 °F 8.6 °F 35% 30.17 in 10.0 mi North 8.1 mph - N/A   Clear
12:55 AM 32.0 °F 24.8 °F 8.6 °F 38% 30.18 in 10.0 mi North 8.1 mph - N/A   Clear
1:15 AM 35.6 °F 28.6 °F 10.4 °F 35% 30.18 in 10.0 mi NNW 9.2 mph - N/A   Clear
1:35 AM 33.8 °F 30.8 °F 10.4 °F 38% 30.19 in 10.0 mi West 3.5 mph - N/A   Clear
1:55 AM 30.2 °F 24.3 °F 8.6 °F 40% 30.19 in 10.0 mi SSE 5.8 mph - N/A   Clear
2:15 AM 32.0 °F 24.2 °F 8.6 °F 38% 30.20 in 10.0 mi SE 9.2 mph - N/A   Clear
2:35 AM 30.2 °F 21.9 °F 8.6 °F 40% 30.20 in 10.0 mi SSE 9.2 mph - N/A   Clear
2:55 AM 28.4 °F 19.7 °F 8.6 °F 43% 30.19 in 10.0 mi SSE 9.2 mph - N/A   Clear
3:15 AM 28.4 °F 22.2 °F 8.6 °F 43% 30.19 in 10.0 mi SSE 5.8 mph - N/A   Clear
3:35 AM 28.4 °F 21.2 °F 8.6 °F 43% 30.20 in 10.0 mi SE 6.9 mph - N/A   Clear
3:55 AM 28.4 °F 19.7 °F 8.6 °F 43% 30.21 in 10.0 mi SE 9.2 mph - N/A   Clear
4:15 AM 28.4 °F 20.4 °F 10.4 °F 47% 30.21 in 10.0 mi SE 8.1 mph - N/A   Clear
4:35 AM 28.4 °F 19.7 °F 10.4 °F 47% 30.22 in 10.0 mi SE 9.2 mph - N/A   Clear
4:55 AM 30.2 °F 21.9 °F 10.4 °F 44% 30.23 in 10.0 mi SE 9.2 mph - N/A   Clear
5:15 AM 30.2 °F 21.9 °F 12.2 °F 47% 30.23 in 10.0 mi SSE 9.2 mph - N/A   Clear
5:35 AM 28.4 °F 21.2 °F 10.4 °F 47% 30.25 in 10.0 mi SSE 6.9 mph - N/A   Clear
5:55 AM 28.4 °F 22.2 °F 10.4 °F 47% 30.25 in 10.0 mi SSW 5.8 mph - N/A   Clear
6:15 AM 26.6 °F 22.6 °F 10.4 °F 51% 30.27 in 10.0 mi SSW 3.5 mph - N/A   Clear
6:35 AM 26.6 °F 22.6 °F 12.2 °F 55% 30.27 in 10.0 mi SE 3.5 mph - N/A   Clear
6:55 AM 30.2 °F 23.4 °F 15.8 °F 55% 30.28 in 10.0 mi SE 6.9 mph - N/A   Clear
7:15 AM 30.2 °F 21.9 °F 17.6 °F 60% 30.29 in 10.0 mi SE 9.2 mph - N/A   Clear
7:35 AM 32.0 °F 24.2 °F 19.4 °F 60% 30.31 in 10.0 mi SE 9.2 mph - N/A   Clear
7:55 AM 35.6 °F 27.1 °F 21.2 °F 56% 30.32 in 10.0 mi SSE 12.7 mph - N/A   Clear
8:15 AM 37.4 °F 28.9 °F 23.0 °F 56% 30.33 in 10.0 mi SSE 13.8 mph - N/A   Clear
8:35 AM 37.4 °F 27.8 °F 23.0 °F 56% 30.33 in 10.0 mi South 17.3 mph - N/A   Clear
8:55 AM 39.2 °F 30.2 °F 23.0 °F 52% 30.33 in 10.0 mi South 17.3 mph - N/A   Clear
9:15 AM 41.0 °F 31.6 °F 24.8 °F 53% 30.34 in 10.0 mi South 20.7 mph 24.2 mph N/A   Clear
9:35 AM 41.0 °F 33.1 °F 24.8 °F 53% 30.35 in 10.0 mi South 15.0 mph - N/A   Clear
9:55 AM 44.6 °F 37.2 °F 23.0 °F 43% 30.35 in 10.0 mi South 17.3 mph - N/A   Clear
10:15 AM 44.6 °F 37.2 °F 23.0 °F 43% 30.35 in 10.0 mi South 17.3 mph 23.0 mph N/A   Clear
10:35 AM 44.6 °F 37.8 °F 23.0 °F 43% 30.35 in 10.0 mi South 15.0 mph 20.7 mph N/A   Clear
10:55 AM 46.4 °F 40.7 °F 23.0 °F 40% 30.35 in 10.0 mi SSE 12.7 mph - N/A   Clear
11:15 AM 46.4 °F 40.7 °F 23.0 °F 40% 30.34 in 10.0 mi South 12.7 mph 16.1 mph N/A   Clear
11:35 AM 46.4 °F 41.1 °F 23.0 °F 40% 30.33 in 10.0 mi South 11.5 mph 18.4 mph N/A   Clear
11:55 AM 48.2 °F - 23.0 °F 37% 30.32 in 10.0 mi South 9.2 mph - N/A   Clear
12:15 PM 48.2 °F - 23.0 °F 37% 30.31 in 10.0 mi SSW 8.1 mph - N/A   Clear
12:35 PM 48.2 °F - 21.2 °F 34% 30.30 in 10.0 mi SSE 3.5 mph - N/A   Clear
12:55 PM 50.0 °F - 19.4 °F 30% 30.29 in 10.0 mi Calm Calm - N/A   Clear
1:15 PM 50.0 °F - 19.4 °F 30% 30.28 in 10.0 mi WNW 5.8 mph - N/A   Clear
1:35 PM 50.0 °F - 17.6 °F 28% 30.27 in 10.0 mi WSW 3.5 mph - N/A   Clear
1:55 PM 51.8 °F - 15.8 °F 24% 30.27 in 10.0 mi Calm Calm - N/A   Clear
2:15 PM 53.6 °F - 15.8 °F 22% 30.26 in 10.0 mi North 6.9 mph - N/A   Clear
2:35 PM 53.6 °F - 15.8 °F 22% 30.26 in 10.0 mi NE 6.9 mph 20.7 mph N/A   Clear
2:55 PM 53.6 °F - 14.0 °F 21% 30.25 in 10.0 mi NW 9.2 mph - N/A   Clear
3:15 PM 55.4 °F - 14.0 °F 20% 30.25 in 10.0 mi NNW 8.1 mph 17.3 mph N/A   Clear
3:35 PM 55.4 °F - 14.0 °F 20% 30.25 in 10.0 mi NNW 3.5 mph 17.3 mph N/A   Clear
3:55 PM 55.4 °F - 14.0 °F 20% 30.24 in 10.0 mi NW 6.9 mph - N/A   Clear
4:15 PM 55.4 °F - 14.0 °F 20% 30.24 in 10.0 mi WNW 4.6 mph - N/A   Clear
4:35 PM 53.6 °F - 14.0 °F 21% 30.24 in 10.0 mi West 5.8 mph - N/A   Clear
4:55 PM 53.6 °F - 14.0 °F 21% 30.24 in 10.0 mi NW 9.2 mph 16.1 mph N/A   Clear
5:15 PM 53.6 °F - 14.0 °F 21% 30.25 in 10.0 mi WNW 5.8 mph - N/A   Clear
5:35 PM 51.8 °F - 12.2 °F 21% 30.25 in 10.0 mi NW 5.8 mph - N/A   Clear
5:55 PM 50.0 °F - 10.4 °F 20% 30.26 in 10.0 mi WNW 3.5 mph - N/A   Clear
6:15 PM 46.4 °F 45.2 °F 10.4 °F 23% 30.26 in 10.0 mi WNW 3.5 mph - N/A   Clear
6:35 PM 46.4 °F 42.9 °F 8.6 °F 22% 30.27 in 10.0 mi WNW 6.9 mph - N/A   Clear
6:55 PM 46.4 °F 44.3 °F 6.8 °F 20% 30.27 in 10.0 mi WNW 4.6 mph - N/A   Clear
7:15 PM 44.6 °F 39.7 °F 5.0 °F 20% 30.28 in 10.0 mi WNW 9.2 mph - N/A   Clear
7:35 PM 42.8 °F 38.6 °F 6.8 °F 23% 30.28 in 10.0 mi NNW 6.9 mph - N/A   Clear
7:55 PM 41.0 °F 38.0 °F 3.2 °F 21% 30.29 in 10.0 mi WNW 4.6 mph - N/A   Clear
8:15 PM 39.2 °F 35.0 °F 3.2 °F 22% 30.30 in 10.0 mi WNW 5.8 mph - N/A   Clear
8:35 PM 41.0 °F 38.0 °F 5.0 °F 23% 30.31 in 10.0 mi NW 4.6 mph - N/A   Clear
8:55 PM 39.2 °F 34.2 °F 5.0 °F 24% 30.32 in 10.0 mi NW 6.9 mph - N/A   Clear
9:15 PM 33.8 °F - 5.0 °F 30% 30.33 in 10.0 mi Calm Calm - N/A   Clear
9:35 PM 35.6 °F 31.7 °F 5.0 °F 28% 30.34 in 10.0 mi ESE 4.6 mph - N/A   Clear
9:55 PM 37.4 °F 32.8 °F 6.8 °F 28% 30.34 in 10.0 mi SE 5.8 mph - N/A   Clear
10:15 PM 35.6 °F 31.7 °F 5.0 °F 28% 30.34 in 10.0 mi ESE 4.6 mph - N/A   Clear
10:35 PM 32.0 °F 28.7 °F 3.2 °F 30% 30.35 in 10.0 mi ENE 3.5 mph - N/A   Clear
10:55 PM 32.0 °F - 5.0 °F 32% 30.35 in 10.0 mi Calm Calm - N/A   Clear
11:15 PM 32.0 °F - 5.0 °F 32% 30.36 in 10.0 mi Calm Calm - N/A   Clear
11:35 PM 33.8 °F - 5.0 °F 30% 30.38 in 10.0 mi Calm Calm - N/A   Clear
11:55 PM 32.0 °F - 6.8 °F 35% 30.38 in 10.0 mi Calm Calm - N/A   Clear